Tracking 20083 objects as of 12-Dec-2019
HD Live streaming from Space Station
objects crossing your sky now

COSMOS 2251 DEB

Track COSMOS 2251 DEB now!
10-day predictions


NORAD ID: 37293
Int'l Code: 1993-036BJH
Perigee: 736.7 km
Apogee: 854.1 km
Inclination: 73.9 °
Period: 100.6 minutes
Semi major axis: 7166 km
RCS: 0.0083 m2 (small)
Launch date: June 16, 1993
Source: Commonwealth of Independent States (former USSR) (CIS)
Launch site: PLESETSK MISSILE AND SPACE COMPLEX (PKMTR)

Note: This is SATELLITE DEBRIS
aabbcc
Your satellite tracking list
Your tracking list is empty




NASA's NSSDC Master Catalog

Two Line Element Set (TLE):
1 37293U 93036BJH 19339.47417785  .00000286  00000-0  11441-3 0  9993
2 37293  73.9239  21.0088 0081943  36.8267 323.8471 14.31040646499633
Source of the keplerian elements: AFSPC